Christmas Island, Christmas Island

5:02 PM +07 on July 22, 2017 (GMT +0700)
Christmas Island

Weather History for YPXM - December, 2012

Change the Weather History Date:

Friday, December 14, 2012

  Actual Average Record
Temperature  
Mean Temperature 77 °F -  
Max Temperature 83 °F 79 °F 83 °F (2012)
Min Temperature 71 °F 70 °F 69 °F (1999)
Cooling Degree Days 12    
Growing Degree Days 27 (Base 50)    
Moisture  
Dew Point 74 °F    
Average Humidity 93    
Maximum Humidity 100    
Minimum Humidity 66    
Precipitation  
Precipitation 0.00 in - - ()
Sea Level Pressure  
Sea Level Pressure 29.88 in    
Wind  
Wind Speed 3 mph ()    
Max Wind Speed 8 mph    
Max Gust Speed -    
Visibility 5.6 miles    
Events Rain    
Averages and records for this station are not official NWS values.
T = Trace of Precipitation, MM = Missing Value Source: Averaged Metar Reports

Daily Weather History Graph

Daily Weather History Graph

Search for Another Location

Airport or City:

Trip Planner

Search our weather history database for the weather conditions in past years. The results will help you decide how hot, cold, wet, or windy it might be!

Date:

Astronomy

Dec. 14, 2012 Rise Set
Actual Time 5:30 AM +07 6:13 PM +07
Civil Twilight 5:07 AM +07 6:37 PM +07
Nautical Twilight 4:39 AM +07 7:04 PM +07
Astronomical Twilight 4:12 AM +07 7:31 PM +07
Moon 6:13 AM +07 (12/14) 7:15 PM +07 (12/14)
Length of Visible Light 13h 30m
Length of Day
12h 43m
New Moon, 1% of the Moon is Illuminated
Dec 14
New Moon
Dec 20
First Quarter
Dec 28
Full
Jan 5
Last Quarter
Jan 12
New

Hourly Weather History & Observations

Time (+07) Temp. Heat Index Dew Point Humidity Pressure Visibility Wind Dir Wind Speed Gust Speed Precip Events Conditions
12:00 AM 76 °F - 75 °F 97% 29.87 in - Calm Calm - -   Overcast
12:00 AM 75.2 °F - 75.2 °F 100% 29.92 in - Calm Calm - N/A   Overcast
1:00 AM 72 °F - 72 °F 99% 29.88 in - South 4.6 mph - -  
1:00 AM 71.6 °F - 71.6 °F 100% 29.92 in - South 4.6 mph - N/A   Overcast
2:00 AM 71.6 °F - 71.6 °F 100% 29.86 in - SE 3.5 mph - N/A   Mostly Cloudy
3:00 AM 71 °F - 70 °F 96% 29.83 in - Calm Calm - -  
3:00 AM 71.6 °F - 69.8 °F 94% 29.86 in - Calm Calm - N/A   Unknown
4:00 AM 71 °F - 71 °F 98% 29.83 in - Calm Calm - -  
4:00 AM 71.6 °F - 69.8 °F 94% 29.86 in - Calm Calm - N/A   Scattered Clouds
5:00 AM 73.4 °F - 71.6 °F 94% 29.86 in - NW 1.2 mph - N/A   Unknown
7:00 AM 76 °F - 75 °F 94% 29.87 in - Calm Calm - -  
7:00 AM 75.2 °F - 75.2 °F 100% 29.92 in - Calm Calm - N/A   Scattered Clouds
8:00 AM 78.8 °F - 73.4 °F 83% 29.92 in - ESE 6.9 mph - N/A   Scattered Clouds
8:07 AM 78.8 °F - 73.4 °F 83% 29.92 in - SE 5.8 mph - N/A   Mostly Cloudy
8:22 AM 80.6 °F 85.4 °F 73.4 °F 79% 29.92 in - SSE 5.8 mph - N/A   Scattered Clouds
9:00 AM 80 °F - 73 °F 74% 29.88 in - SE 4.6 mph - -  
9:00 AM 80.6 °F 85.4 °F 73.4 °F 79% 29.92 in - SE 4.6 mph - N/A   Unknown
10:00 AM 83 °F - 73 °F 66% 29.89 in - East 6.9 mph - -  
10:00 AM 82.4 °F 88.2 °F 73.4 °F 74% 29.92 in - East 6.9 mph - N/A   Scattered Clouds
11:00 AM - - - N/A% 0.00 in - North - - N/A   Unknown
12:00 PM 79 °F - 75 °F 85% 29.88 in - Calm Calm - -   Overcast
12:21 PM 78.8 °F - 75.2 °F 89% 29.92 in - SSE 4.6 mph - N/A   Drizzle
12:28 PM 78.8 °F - 75.2 °F 89% 29.92 in 6.2 mi SSE 4.6 mph - N/A   Drizzle
12:59 PM 77.0 °F - 75.2 °F 94% 29.89 in 3.7 mi South 6.9 mph - N/A Rain Rain
1:00 PM 77 °F - 75 °F 92% 29.86 in - South 6.9 mph - -  
1:00 PM 77.0 °F - 75.2 °F 94% 29.89 in 3.1 mi South 6.9 mph - N/A Rain Rain
1:58 PM 75.2 °F - 75.2 °F 100% 29.89 in 6.2 mi SW 3.5 mph - N/A Rain Rain
2:00 PM 75.2 °F - 75.2 °F 100% 29.89 in 6.2 mi SSW 3.5 mph - N/A Rain Rain
2:01 PM 77.0 °F - 75.2 °F 94% 29.89 in 6.2 mi SSW 3.5 mph - N/A Rain Rain
2:07 PM 77.0 °F - 75.2 °F 94% 29.89 in 5.0 mi South 3.5 mph - N/A Rain Rain
3:00 PM 76 °F - 74 °F 91% 29.83 in - South 5.8 mph - -   Overcast
3:00 PM 75.2 °F - 73.4 °F 94% 29.86 in 6.2 mi South 5.8 mph - N/A Rain Rain
3:19 PM 77.0 °F - 75.2 °F 94% 29.86 in 6.2 mi SSE 6.9 mph - N/A Rain Light Rain
4:00 PM 77 °F - 75 °F 92% 29.82 in - SSE 8.1 mph - -  
4:00 PM 77.0 °F - 75.2 °F 94% 29.86 in 6.2 mi SSE 8.1 mph - N/A   Mostly Cloudy
4:51 PM 77.0 °F - 75.2 °F 94% 29.86 in - South 5.8 mph - N/A   Mostly Cloudy
5:00 PM 77.0 °F - 75.2 °F 94% 29.86 in - South 5.8 mph - N/A   Mostly Cloudy
5:07 PM 77.0 °F - 75.2 °F 94% 29.86 in - South 5.8 mph - N/A   Mostly Cloudy
5:26 PM 77.0 °F - 73.4 °F 89% 29.86 in - SSE 4.6 mph - N/A   Mostly Cloudy
5:42 PM 75.2 °F - 73.4 °F 94% 29.86 in 6.2 mi SSE 4.6 mph - N/A   Scattered Clouds
5:52 PM 75.2 °F - 73.4 °F 94% 29.86 in 6.2 mi SSE 3.5 mph - N/A   Unknown
6:00 PM 76 °F - 74 °F 90% 29.82 in - SSE 3.5 mph - -  
6:00 PM 75.2 °F - 73.4 °F 94% 29.86 in 6.2 mi SSE 3.5 mph - N/A   Unknown
7:00 PM 76 °F - 74 °F 93% 29.85 in - SE 5.8 mph - -  
7:00 PM 77.0 °F - 75.2 °F 94% 29.89 in 6.2 mi SE 5.8 mph - N/A   Scattered Clouds
7:24 PM 77.0 °F - 75.2 °F 94% 29.89 in 6.2 mi SE 5.8 mph - N/A Rain Light Rain
8:00 PM 77.0 °F - 75.2 °F 94% 29.89 in 6.2 mi SE 6.9 mph - N/A Rain Light Rain Showers
8:19 PM 77.0 °F - 75.2 °F 94% 29.92 in 3.7 mi ESE 6.9 mph - N/A Rain Heavy Rain Showers
9:00 PM 77 °F - 76 °F 96% 29.88 in - ESE 6.9 mph - -   Overcast
9:00 PM 77.0 °F - 77.0 °F 100% 29.92 in 6.2 mi ESE 6.9 mph - N/A   Mostly Cloudy
9:08 PM 77.0 °F - 75.2 °F 94% 29.92 in 3.7 mi ESE 6.9 mph - N/A Rain Rain Showers
10:00 PM 76 °F - 75 °F 95% 29.89 in - ESE 4.6 mph - -  
10:00 PM 75.2 °F - 75.2 °F 100% 29.92 in 5.0 mi ESE 4.6 mph - N/A Rain Heavy Rain Showers
10:07 PM 75.2 °F - 75.2 °F 100% 29.92 in 5.6 mi ESE 6.9 mph - N/A Rain Light Rain Showers
11:00 PM 75.2 °F - 75.2 °F 100% 29.92 in 6.2 mi ESE 8.1 mph - N/A Rain Heavy Rain Showers